Theta_e
341 341 340 340 341 341 336 339 342 344 345 346 345 344 343 340 334 335 335 335 340 341 343 341 340 340 337 337 336 337 336 335 334 334 335 335 334 335 335 334 334 335 340
342 344 341 340 344 341 341 344 344 344 345 345 344 344 344 337 333 332 332 332 334 338 338 336 338 343 336 335 334 334 333 336 338 336 336 337 338 339 341 340 341 341 340
343 343 344 343 342 337 341 343 344 344 344 344 343 344 344 338 336 333 332 332 333 334 336 335 332 332 333 334 333 332 332 334 336 337 338 338 338 337 337 337 337 339 340
346 343 345 343 342 342 342 343 344 343 345 343 343 344 344 343 342 338 335 338 336 335 336 334 334 336 337 338 338 338 338 339 340 341 340 339 338 338 338 338 341 337 337
347 346 345 344 342 342 343 344 345 342 341 344 344 344 344 344 342 343 343 341 340 340 340 338 336 336 338 339 344 338 338 340 341 344 341 340 339 340 340 338 338 336 336
348 350 345 346 345 343 343 345 345 344 342 343 344 342 344 345 342 342 343 343 344 344 344 343 342 340 340 341 343 342 339 337 337 337 338 337 336 337 338 339 336 336 335
348 350 347 348 349 347 348 346 345 343 345 342 342 341 343 345 344 343 342 343 343 344 345 345 345 343 342 342 343 343 343 343 341 338 337 335 334 332 331 333 335 335 333
351 350 348 347 348 347 348 347 346 345 346 342 342 341 336 338 341 342 342 342 343 342 343 343 344 344 343 342 341 342 343 343 343 341 339 338 333 330 327 328 330 334 331
351 350 349 348 347 348 347 347 345 345 341 340 342 342 336 336 338 340 341 342 342 342 341 341 342 343 343 344 344 343 342 342 342 343 342 341 339 334 331 327 326 329 332
351 350 348 349 347 348 348 346 345 345 342 341 345 342 344 344 336 337 340 340 341 342 342 341 343 343 343 344 344 345 345 344 345 345 345 345 343 341 338 334 330 328 330
353 350 350 349 351 348 346 346 348 348 344 346 345 342 341 343 342 339 338 341 343 343 343 342 342 342 342 343 344 344 344 345 345 345 346 346 347 345 344 341 337 334 329
353 352 351 350 349 350 350 348 350 349 348 349 350 346 344 344 343 342 339 340 343 344 344 344 344 344 343 343 344 344 344 344 344 345 344 344 346 346 345 345 343 340 338
354 352 351 350 350 350 350 349 350 350 348 349 350 348 347 351 351 345 342 342 342 343 343 343 345 345 349 349 346 345 345 344 344 345 344 344 345 345 345 345 345 343 342
351 350 353 351 350 349 350 348 350 351 350 347 350 350 349 348 350 351 348 343 338 340 342 342 345 345 348 349 351 351 353 352 352 352 352 351 351 351 349 349 347 345 344
351 350 351 353 351 351 349 351 349 351 349 348 349 348 349 348 347 348 352 348 344 341 339 344 345 349 351 351 351 355 352 354 354 354 353 354 353 353 356 356 355 352 347
349 349 350 353 351 352 349 350 351 350 350 347 349 350 348 347 348 346 349 352 351 347 342 347 351 352 351 355 355 352 357 352 349 346 347 348 353 358 357 355 353 352 352
351 350 349 350 352 352 352 350 348 351 351 349 350 352 352 350 352 353 354 351 350 351 349 351 353 355 356 355 351 356 357 353 351 347 355 356 358 357 355 353 350 348 348
351 352 350 350 349 350 352 352 351 351 352 351 351 351 350 350 351 352 355 354 354 355 355 356 358 356 354 354 355 355 355 352 344 350 354 359 356 357 355 351 344 336 334
345 350 352 352 352 349 351 352 352 350 351 352 351 353 354 354 353 352 351 355 355 354 355 357 357 356 356 356 356 354 353 347 347 351 357 358 356 356 353 348 340 334 335
344 344 349 350 350 351 352 351 351 350 351 351 351 351 350 351 353 354 354 354 354 353 353 355 357 357 357 358 358 356 352 349 351 351 356 357 356 354 352 346 335 337 335
341 342 345 350 353 353 351 350 350 351 351 351 349 350 348 349 349 353 355 355 355 352 353 357 358 358 358 357 355 353 352 350 353 351 354 358 356 353 352 345 333 337 338
339 341 344 346 346 351 352 350 349 350 351 350 349 348 347 347 348 348 350 352 354 355 355 357 356 356 355 354 353 352 350 350 350 351 353 355 355 352 349 339 331 336 337
342 343 341 344 345 345 347 350 352 352 351 351 350 350 349 349 348 347 347 349 350 352 355 356 355 354 353 351 352 352 353 352 352 352 354 356 355 352 346 337 331 334 336
343 342 342 343 345 344 343 350 353 353 353 352 352 351 350 350 350 350 349 349 349 348 348 348 349 348 349 348 351 351 353 352 353 354 355 356 354 350 342 336 330 331 335
344 344 342 340 344 346 347 344 351 355 355 355 353 351 349 350 350 351 353 352 351 349 348 347 347 347 348 349 351 353 353 352 352 355 356 356 354 348 340 333 330 329 333
348 347 346 344 343 343 344 344 344 351 353 353 352 350 350 350 350 353 354 353 353 352 351 349 348 349 349 349 349 352 354 355 353 353 357 357 354 347 337 334 329 328 329
Wind_Speed
13 13 12 11 10 8 8 8 8 7 6 4 4 10 10 7 8 9 9 8 8 7 7 6 6 5 4 3 3 3 3 3 3 4 6 7 7 7 7 7 8 8 9
14 12 13 10 9 7 7 8 7 6 7 3 4 10 11 9 7 7 7 7 7 7 6 5 5 5 5 5 4 4 4 5 6 7 7 8 8 9 9 8 9 10 11
8 9 10 11 10 7 8 7 6 7 6 2 6 13 11 7 6 7 6 5 6 6 6 5 5 5 5 6 6 6 7 7 8 8 8 9 10 10 9 9 9 9 10
9 11 7 10 11 9 11 9 8 5 5 5 5 13 9 7 6 6 5 5 5 5 5 6 6 6 6 7 8 9 9 9 9 9 10 10 10 10 11 10 10 12 10
7 8 7 9 13 10 9 6 6 7 5 5 5 9 11 10 8 8 7 7 7 7 7 5 6 7 7 8 9 10 10 10 11 11 12 12 12 11 11 11 11 10 9
7 9 9 10 12 12 10 8 6 3 3 6 5 5 10 10 12 13 11 11 11 10 10 9 8 10 9 10 9 11 10 11 11 11 12 12 12 12 11 11 11 10 9
9 11 11 7 10 11 9 8 3 3 3 6 4 4 5 8 14 15 15 15 14 14 13 13 13 13 12 12 13 12 12 13 13 12 12 12 12 12 12 12 11 10 10
10 10 12 9 9 9 10 9 6 5 4 6 2 1 2 4 11 14 16 17 17 16 17 15 15 14 12 11 12 12 12 13 14 14 13 12 13 13 14 14 13 12 11
12 13 14 10 12 11 13 10 6 4 6 5 4 2 1 3 3 3 8 13 16 17 16 15 16 17 14 13 13 12 12 13 14 14 15 15 15 16 16 17 16 15 14
12 13 15 12 11 14 11 9 8 5 5 4 2 4 2 0 2 3 3 7 9 11 13 14 14 14 16 16 16 16 16 16 17 18 20 20 21 21 21 21 20 19 17
16 15 15 14 13 13 12 11 10 8 7 5 2 1 0 0 2 1 1 4 7 11 12 13 14 15 14 18 20 21 21 22 23 25 26 26 26 27 27 26 23 22 21
20 17 15 14 15 14 14 14 11 9 7 5 1 2 1 1 1 1 1 2 3 5 5 7 14 16 16 19 21 23 23 25 26 26 25 25 24 24 24 26 25 25 23
23 20 17 15 14 16 14 14 12 11 9 6 3 2 3 2 4 1 1 2 3 3 3 4 7 8 10 11 14 18 21 22 24 27 28 30 29 24 25 29 30 28 23
26 22 21 18 15 15 14 15 13 12 11 11 8 6 4 3 0 4 2 1 3 3 4 3 3 10 14 13 16 21 22 22 23 25 26 26 27 26 25 25 27 29 30
28 24 22 23 20 17 16 16 14 14 14 13 12 10 8 6 5 3 6 3 1 1 3 3 5 15 17 17 20 22 25 25 21 21 22 21 20 20 17 18 18 17 20
29 28 25 25 23 21 17 17 16 14 14 15 13 12 11 9 7 5 5 4 3 3 2 5 15 16 19 19 22 24 23 16 23 28 28 24 16 13 16 15 15 16 16
25 30 29 27 26 25 22 20 18 16 16 14 14 13 12 11 10 7 7 6 7 6 5 11 15 17 20 23 24 22 21 18 32 28 22 14 13 18 16 15 16 16 14
23 26 28 26 27 28 27 25 22 20 19 17 16 15 14 11 11 10 9 11 10 9 10 14 18 21 23 22 22 22 18 27 28 25 19 13 20 17 16 20 24 25 17
31 26 28 30 29 29 29 28 25 23 21 20 18 16 15 15 16 14 13 13 13 13 13 15 20 23 24 23 24 22 27 27 23 25 12 13 17 18 19 25 31 24 17
34 33 29 27 30 29 25 30 27 25 24 23 22 21 20 20 18 17 16 17 17 17 17 18 21 24 25 25 24 26 30 28 25 21 12 14 20 18 19 26 28 21 18
39 37 35 30 27 27 27 30 29 27 26 25 24 24 23 22 23 20 20 21 21 20 20 21 23 25 26 27 28 28 27 26 30 13 13 15 18 16 19 25 23 17 14
44 42 39 37 35 32 30 32 32 31 30 28 27 26 25 24 24 23 23 23 22 23 24 24 25 23 26 28 31 30 26 24 6 14 16 19 14 14 18 21 20 11 11
42 42 45 43 41 41 38 36 35 35 34 32 31 29 29 28 27 26 25 25 25 25 25 25 28 30 31 31 29 28 26 19 21 23 20 16 13 11 13 18 18 8 7
37 37 39 43 44 45 42 37 36 36 36 36 34 33 33 33 31 28 26 26 26 26 26 26 27 29 29 28 28 27 24 22 23 23 14 6 8 6 8 13 15 10 5
34 36 37 37 38 41 44 42 39 37 37 39 39 38 36 35 33 30 29 30 31 32 29 27 28 28 27 27 25 24 24 18 10 16 17 7 7 5 5 8 11 10 5
34 32 33 37 40 41 41 43 43 41 35 38 39 40 39 38 36 33 32 33 34 38 33 31 30 28 27 24 20 19 19 19 17 8 5 8 8 5 1 2 7 6 6
Wind_Direction
165 164 162 169 170 156 141 137 141 152 150 134 188 202 195 188 178 172 170 171 181 183 185 196 200 206 214 221 230 248 272 290 305 306 315 322 327 333 336 336 336 335 334
189 190 183 178 180 178 156 145 143 144 147 121 171 174 189 189 168 167 169 174 186 193 200 211 216 223 239 245 255 267 278 287 295 296 301 308 315 318 324 323 321 326 322
185 187 190 180 179 178 176 168 152 155 156 109 170 171 188 186 183 182 180 182 190 203 213 222 228 237 250 261 268 271 275 277 277 293 302 307 301 302 299 305 313 314 308
178 180 182 169 178 146 156 154 163 160 162 170 164 186 198 210 213 212 212 216 213 224 230 231 235 249 262 267 271 275 278 287 297 294 295 295 298 302 307 310 311 309 315
176 175 163 146 168 163 156 173 200 173 171 188 184 209 223 231 233 235 243 248 247 249 255 259 254 255 264 277 278 280 282 288 292 292 294 294 295 299 302 304 301 306 308
194 193 165 159 167 180 200 210 185 141 161 183 201 229 228 242 250 250 255 262 262 261 263 269 272 272 272 274 279 283 288 294 291 291 291 291 291 291 292 293 296 297 297
193 178 182 184 180 188 194 179 163 185 227 205 238 260 241 250 248 255 259 263 267 269 269 267 271 277 280 279 280 283 286 290 292 289 289 291 291 290 287 287 286 287 286
179 181 179 174 170 182 201 183 181 182 173 188 234 112 351 274 251 255 254 258 262 270 273 271 270 275 284 290 290 287 287 286 287 290 293 297 296 294 292 289 285 280 277
194 196 190 191 189 178 166 175 188 187 184 188 221 212 82 240 321 262 254 257 263 265 271 275 274 271 278 286 291 293 293 299 298 297 298 299 302 300 297 292 286 281 276
204 195 189 193 188 189 187 187 186 191 213 210 207 223 293 221 163 342 269 258 263 263 269 275 282 283 280 284 288 291 294 298 301 302 302 300 300 300 298 294 291 285 278
213 199 204 198 197 196 204 202 195 194 204 229 279 30 82 237 68 126 300 325 268 269 274 282 289 288 291 291 293 294 296 302 304 305 305 303 298 297 295 292 289 288 281
218 217 211 212 206 204 197 198 197 199 200 214 279 226 92 95 108 115 28 282 305 347 352 304 286 287 294 296 302 303 304 304 306 308 306 306 300 295 298 294 285 284 278
221 220 215 215 209 203 204 201 202 203 214 223 228 193 163 88 34 91 309 322 336 320 325 345 15 41 11 351 346 336 320 313 310 309 309 308 305 306 292 291 287 282 268
224 222 222 222 217 215 210 208 213 219 225 232 235 230 236 235 21 21 305 317 351 322 318 322 353 12 3 349 345 339 334 333 329 324 321 319 315 313 305 306 303 293 279
230 231 231 225 223 223 221 217 222 217 222 228 238 243 246 257 258 301 353 278 156 346 302 329 345 339 343 343 340 341 341 341 351 356 352 345 341 334 336 332 336 326 298
238 236 236 231 229 227 226 224 227 229 233 232 238 249 250 257 262 266 292 333 292 240 228 289 319 333 335 338 341 340 348 357 356 347 337 335 342 355 347 343 345 345 340
240 238 237 237 236 234 231 230 232 233 238 238 238 243 252 258 260 262 270 282 284 282 267 308 316 324 325 332 336 343 346 345 344 345 351 357 357 347 346 353 351 335 323
245 242 238 241 244 243 237 235 236 239 238 239 246 246 255 257 263 272 279 269 277 290 289 295 310 317 322 331 336 338 346 333 337 347 344 355 347 344 347 348 345 336 319
237 243 248 246 248 255 242 236 239 241 242 246 251 255 260 268 269 273 273 276 281 288 290 291 301 310 315 324 328 329 330 335 344 345 343 338 346 344 346 349 353 356 353
236 239 244 245 246 248 244 235 239 243 246 249 252 257 262 265 269 268 272 276 281 286 288 291 297 305 311 318 319 322 327 337 340 341 327 320 339 341 345 356 359 8 13
232 236 237 239 243 244 242 235 240 244 248 252 254 256 259 262 263 268 272 276 281 282 287 293 297 301 305 310 314 318 319 328 330 332 316 316 322 334 348 360 6 18 35
232 233 236 239 240 241 242 241 244 247 249 254 258 261 262 262 263 264 265 270 276 277 281 285 288 287 293 302 308 311 315 318 325 325 320 314 313 329 347 2 7 20 39
234 232 235 237 242 243 243 243 244 246 249 253 259 265 269 269 268 268 267 268 267 269 273 279 282 284 290 299 305 307 310 309 305 312 314 310 304 314 342 356 4 14 37
231 232 233 235 237 243 245 244 243 243 247 253 258 264 269 271 271 271 272 272 272 273 273 274 277 283 288 297 298 301 299 301 301 307 310 257 288 298 329 357 2 10 36
230 230 231 231 230 236 241 242 241 242 246 252 259 265 267 268 268 270 271 273 276 277 278 280 282 287 291 295 297 294 288 290 289 300 305 270 265 260 311 359 7 15 62
231 232 231 233 235 235 234 240 241 241 242 249 256 262 264 264 266 268 268 270 273 276 282 285 287 289 295 296 291 281 281 275 276 285 274 212 234 218 212 349 14 30 81